Location: Lalanga
(4.5882°N, 32.9072°E)
Time: 03:18:23
(UTC+00:00)

CSL-04 Debris - Pass Details

Date: 24 January 2020
Orbit: 827 x 848 km, 99.0° (Epoch: 16 February)

Event Time Altitude Azimuth Distance (km) Brightness Sun altitude
Rises 16:27:58 0° 155° (SSE) 3,366 7.3 -8.0°
Reaches altitude 10° 16:30:24 10° 149° (SSE) 2,429 6.5 -8.6°
Maximum altitude 16:35:32 46° 77° (ENE) 1,091 4.4 -9.8°
Drops below altitude 10° 16:40:39 10° 4° (N) 2,421 6.4 -11.0°
Sets 16:43:04 0° 359° (N) 3,353 7.1 -11.6°
